SM2NLD Weather Reports


time (UTC)temp
F
wind
direction
speed
knots
gust
knots
rain 1hr
in
rain 24hr
in
rain mn
in
humidity
%
barometer
mb
20260508100406 50 293 3.5 9.6 0.00 0.00 0.00 10 1012.0
20260508100003 50 282 3.5 9.6 0.00 0.00 0.00 10 1012.0
20260508095906 51 276 3.5 9.6 0.00 0.00 0.00 10 1012.1
20260508095636 51 207 3.5 7.0 0.00 0.00 0.00 10 1012.1
20260508095406 51 169 0.0 8.7 0.00 0.00 0.00 10 1012.2
20260508095403 51 182 0.9 8.7 0.00 0.00 0.00 10 1012.2
20260508094906 50 132 0.0 8.7 0.00 0.00 0.00 10 1012.1
20260508094503 50 133 1.7 8.7 0.00 0.00 0.00 10 1012.3
20260508094406 51 146 1.7 6.1 0.00 0.00 0.00 10 1012.2
20260508093906 51 182 4.3 5.2 0.00 0.00 0.00 10 1012.3
20260508093636 51 177 1.7 4.3 0.00 0.00 0.00 10 1012.3
20260508093603 51 177 1.7 4.3 0.00 0.00 0.00 10 1012.3
20260508093406 51 196 1.7 3.5 0.00 0.00 0.00 10 1012.3
20260508092906 51 194 1.7 4.3 0.00 0.00 0.00 10 1012.2
20260508092703 51 204 0.0 4.3 0.00 0.00 0.00 10 1012.3
20260508092406 50 232 0.9 4.3 0.00 0.00 0.00 10 1012.3
20260508091906 49 320 2.6 6.1 0.00 0.00 0.00 10 1012.4
20260508091803 49 308 1.7 6.1 0.00 0.00 0.00 10 1012.5
20260508091636 49 311 1.7 6.1 0.00 0.00 0.00 10 1012.4
20260508091406 49 218 1.7 6.1 0.00 0.00 0.00 10 1012.2
20260508090906 49 185 1.7 5.2 0.00 0.00 0.00 10 1012.4
20260508090903 49 190 3.5 6.1 0.00 0.00 0.00 10 1012.4
20260508090405 48 195 1.7 6.1 0.00 0.00 0.00 10 1012.5
20260508090003 48 203 1.7 6.1 0.00 0.00 0.00 10 1012.4
20260508085905 47 206 0.0 6.1 0.00 0.00 0.00 10 1012.4
20260508085635 47 202 1.7 6.1 0.00 0.00 0.00 10 1012.5
20260508085403 47 190 3.5 6.1 0.00 0.00 0.00 10 1012.5
20260508084905 46 166 0.9 8.7 0.00 0.00 0.00 10 1012.5
20260508084503 45 159 1.7 8.7 0.00 0.00 0.00 10 1012.8
20260508084404 45 171 3.5 8.7 0.00 0.00 0.00 10 1012.7
20260508083905 45 199 0.9 7.0 0.00 0.00 0.00 10 1012.4
20260508083634 44 219 1.7 7.0 0.00 0.00 0.00 10 1012.6
20260508083612 44 220 1.7 7.0 0.00 0.00 0.00 10 1012.6
20260508083404 44 233 3.5 7.0 0.00 0.00 0.00 10 1012.7
20260508082905 45 284 0.9 5.2 0.00 0.00 0.00 10 1012.6
20260508082707 45 191 2.6 5.2 0.00 0.00 0.00 10 1012.6
20260508082405 45 162 0.9 4.3 0.00 0.00 0.00 10 1012.7
20260508081904 44 182 1.7 4.3 0.00 0.00 0.00 10 1012.6
20260508081803 44 185 2.6 4.3 0.00 0.00 0.00 10 1012.8
20260508081634 44 189 1.7 3.5 0.00 0.00 0.00 10 1012.8
20260508081404 43 205 0.0 3.5 0.00 0.00 0.00 10 1012.7
20260508080904 43 224 1.7 5.2 0.00 0.00 0.00 10 1012.8
20260508080404 42 222 1.7 7.0 0.00 0.00 0.00 10 1012.8
20260508080003 42 220 1.7 7.0 0.00 0.00 0.00 10 1012.8
20260508075904 42 217 1.7 7.0 0.00 0.00 0.00 10 1012.9
20260508075634 42 217 1.7 5.2 0.00 0.00 0.00 10 1012.8
20260508075404 42 238 0.9 5.2 0.00 0.00 0.00 10 1012.7
20260508074904 42 324 0.0 5.2 0.00 0.00 0.00 10 1012.6
20260508074503 41 343 0.9 5.2 0.00 0.00 0.00 10 1012.6
20260508074404 41 338 1.7 5.2 0.00 0.00 0.00 10 1012.7
20260508073904 41 325 3.5 5.2 0.00 0.00 0.00 10 1012.5
20260508073634 41 315 1.7 5.2 0.00 0.00 0.00 10 1012.5
20260508073604 41 315 1.7 5.2 0.00 0.00 0.00 10 1012.5
20260508073404 41 303 1.7 3.5 0.00 0.00 0.00 10 1012.7
20260508072904 41 9 0.9 3.5 0.00 0.00 0.00 10 1012.6
20260508072703 41 1 1.7 3.5 0.00 0.00 0.00 10 1012.5
20260508072405 40 360 1.7 3.5 0.00 0.00 0.00 10 1012.5
20260508071905 40 31 0.0 3.5 0.00 0.00 0.00 10 1012.6
20260508071803 40 30 0.9 3.5 0.00 0.00 0.00 10 1012.5
20260508071636 40 29 1.7 4.3 0.00 0.00 0.00 10 1012.6
20260508071405 40 214 1.7 4.3 0.00 0.00 0.00 10 1012.6
20260508070905 40 225 1.7 4.3 0.00 0.00 0.00 10 1012.6
20260508070903 40 225 0.0 4.3 0.00 0.00 0.00 10 1012.7
20260508070405 39 220 0.9 4.3 0.00 0.00 0.00 10 1012.6
20260508070003 39 217 0.9 4.3 0.00 0.00 0.00 10 1012.5
20260508065905 38 214 0.9 2.6 0.00 0.00 0.00 10 1012.6
20260508065635 38 248 0.9 3.5 0.00 0.00 0.00 10 1012.4
20260508065405 37 300 0.9 3.5 0.00 0.00 0.00 10 1012.4
20260508065403 38 292 1.7 3.5 0.00 0.00 0.00 10 1012.4
20260508064749 37 343 2.6 3.5 0.00 0.00 0.00 10 1012.4
20260508064504 37 353 0.0 3.5 0.00 0.00 0.00 10 1012.4
20260508064249 37 11 1.7 3.5 0.00 0.00 0.00 10 1012.4
20260508063749 36 328 0.9 3.5 0.00 0.00 0.00 10 1012.4
20260508063635 36 318 1.7 3.5 0.00 0.00 0.00 10 1012.4
20260508063603 36 318 1.7 3.5 0.00 0.00 0.00 10 1012.4
20260508063249 36 245 0.9 3.5 0.00 0.00 0.00 10 1012.5
20260508062749 36 252 2.6 3.5 0.00 0.00 0.00 10 1012.4
20260508062706 36 248 2.6 3.5 0.00 0.00 0.00 10 1012.4
20260508062249 36 251 1.7 3.5 0.00 0.00 0.00 10 1012.4
20260508061803 35 224 0.9 2.6 0.00 0.00 0.00 10 1012.3
20260508061749 35 227 0.9 2.6 0.00 0.00 0.00 10 1012.3
20260508061635 35 229 0.9 2.6 0.00 0.00 0.00 10 1012.4
20260508061249 35 308 0.9 1.7 0.00 0.00 0.00 10 1012.4
20260508060903 35 351 0.0 1.7 0.00 0.00 0.00 10 1012.2
20260508060749 35 355 0.0 1.7 0.00 0.00 0.00 10 1012.3
20260508060249 35 223 0.0 2.6 0.00 0.00 0.00 10 1012.2
20260508060007 35 217 0.0 2.6 0.00 0.00 0.00 10 1012.2
20260508055749 35 226 0.9 2.6 0.00 0.00 0.00 10 1012.1
20260508055635 35 229 0.9 2.6 0.00 0.00 0.00 10 1012.2
20260508055403 34 244 0.0 2.6 0.00 0.00 0.00 10 1012.2
20260508055249 34 261 0.9 1.7 0.00 0.00 0.00 10 1012.2
20260508054749 34 266 0.0 3.5 0.00 0.00 0.00 10 1012.1
20260508054503 34 259 0.0 3.5 0.00 0.00 0.00 10 1012.1
20260508054248 33 253 1.7 3.5 0.00 0.00 0.00 10 1012.0
20260508053749 33 235 0.9 1.7 0.00 0.00 0.00 10 1012.0
20260508053634 33 230 0.9 1.7 0.00 0.00 0.00 10 1012.0
20260508053607 33 230 0.9 1.7 0.00 0.00 0.00 10 1012.0
20260508053248 33 32 0.0 1.7 0.00 0.00 0.00 11 1011.9
20260508052748 32 78 0.0 1.7 0.00 0.00 0.00 13 1011.8
20260508052703 32 78 0.0 1.7 0.00 0.00 0.00 13 1011.8
20260508052248 32 135 0.0 1.7 0.00 0.00 0.00 18 1012.0
20260508051803 31 135 0.0 1.7 0.00 0.00 0.00 18 1011.9
20260508051748 31 135 0.0 0.9 0.00 0.00 0.00 18 1011.8
20260508051508 31 0 0.0 0.0 0.00 0.00 0.00 19 1011.9
20260508051008 31 0 0.0 0.0 0.00 0.00 0.00 20 1011.9
20260508050903 31 0 0.0 0.0 0.00 0.00 0.00 20 1011.9
20260508050508 30 0 0.0 0.0 0.00 0.00 0.00 22 1012.0
20260508050008 30 0 0.0 0.0 0.00 0.00 0.00 22 1011.8
20260508050003 30 0 0.0 0.0 0.00 0.00 0.00 22 1011.8
20260508045634 29 0 0.0 0.0 0.00 0.00 0.00 22 1011.8
20260508045508 29 0 0.0 0.0 0.00 0.00 0.00 22 1011.8
20260508045403 29 0 0.0 0.0 0.00 0.00 0.00 22 1011.8
20260508045008 29 0 0.0 0.0 0.00 0.00 0.00 23 1011.8
20260508044508 29 0 0.0 0.0 0.00 0.00 0.00 24 1011.8
20260508044503 29 0 0.0 0.0 0.00 0.00 0.00 24 1011.8
20260508044008 28 0 0.0 0.0 0.00 0.00 0.00 24 1011.8
20260508043634 28 0 0.0 0.0 0.00 0.00 0.00 25 1011.8
20260508043603 28 0 0.0 0.0 0.00 0.00 0.00 25 1011.8
20260508043508 28 0 0.0 0.0 0.00 0.00 0.00 24 1011.8
20260508043008 28 0 0.0 0.0 0.00 0.00 0.00 25 1011.6
20260508042703 28 0 0.0 0.0 0.00 0.00 0.00 25 1011.6
20260508042508 27 0 0.0 0.0 0.00 0.00 0.00 25 1011.7
20260508042008 27 0 0.0 0.0 0.00 0.00 0.00 26 1011.5
20260508041803 27 0 0.0 0.0 0.00 0.00 0.00 26 1011.6
20260508041634 27 0 0.0 0.0 0.00 0.00 0.00 26 1011.7
20260508041508 26 0 0.0 0.0 0.00 0.00 0.00 26 1011.5
20260508041009 26 0 0.0 0.0 0.00 0.00 0.00 27 1011.5
20260508040903 26 0 0.0 0.0 0.00 0.00 0.00 26 1011.6
20260508040508 25 0 0.0 0.0 0.00 0.00 0.00 25 1011.4
20260508040008 25 0 0.0 0.0 0.00 0.00 0.00 25 1011.4
20260508040003 25 0 0.0 0.0 0.00 0.00 0.00 25 1011.4
20260508035634 25 0 0.0 0.0 0.00 0.00 0.00 25 1011.5
20260508035508 25 0 0.0 0.0 0.00 0.00 0.00 25 1011.4
20260508035403 25 0 0.0 0.0 0.00 0.00 0.00 25 1011.4
20260508035008 25 0 0.0 0.0 0.00 0.00 0.00 25 1011.4
20260508034508 24 0 0.0 0.0 0.00 0.00 0.00 25 1011.5
20260508034503 24 0 0.0 0.0 0.00 0.00 0.00 25 1011.5
20260508034008 24 0 0.0 0.0 0.00 0.00 0.00 24 1011.4
20260508033634 24 0 0.0 0.0 0.00 0.00 0.00 24 1011.3
20260508033603 24 0 0.0 0.0 0.00 0.00 0.00 24 1011.3
20260508033508 24 0 0.0 0.0 0.00 0.00 0.00 24 1011.4
20260508033008 24 0 0.0 0.0 0.00 0.00 0.00 23 1011.4
20260508032703 24 0 0.0 0.0 0.00 0.00 0.00 23 1011.3
20260508032508 24 0 0.0 0.0 0.00 0.00 0.00 22 1011.3
20260508032008 23 0 0.0 0.0 0.00 0.00 0.00 22 1011.3
20260508031803 23 0 0.0 0.0 0.00 0.00 0.00 22 1011.4
20260508031634 23 0 0.0 0.0 0.00 0.00 0.00 22 1011.1
20260508031508 23 0 0.0 0.0 0.00 0.00 0.00 22 1011.4
20260508031008 23 0 0.0 0.0 0.00 0.00 0.00 22 1011.2
20260508030903 24 0 0.0 0.0 0.00 0.00 0.00 22 1011.2
20260508030508 24 0 0.0 0.0 0.00 0.00 0.00 22 1011.1
20260508030008 24 0 0.0 0.0 0.00 0.00 0.00 22 1011.2
20260508030003 24 0 0.0 0.0 0.00 0.00 0.00 22 1011.2
20260508025634 23 135 0.0 0.9 0.00 0.00 0.00 22 1011.0
20260508025508 23 135 0.0 0.9 0.00 0.00 0.00 22 1011.1
20260508025403 23 135 0.0 0.9 0.00 0.00 0.00 22 1011.1
20260508025008 23 135 0.0 0.9 0.00 0.00 0.00 21 1011.0
20260508024508 23 135 0.0 1.7 0.00 0.00 0.00 20 1011.0
20260508024503 23 135 0.0 1.7 0.00 0.00 0.00 20 1011.0
20260508024008 23 135 0.0 1.7 0.00 0.00 0.00 19 1011.0
20260508023636 23 0 0.0 0.0 0.00 0.00 0.00 19 1011.0
20260508023603 23 0 0.0 0.0 0.00 0.00 0.00 19 1011.0
20260508023509 23 0 0.0 0.0 0.00 0.00 0.00 19 1011.0
20260508023008 23 0 0.0 0.0 0.00 0.00 0.00 19 1011.0
20260508022703 23 0 0.0 0.0 0.00 0.00 0.00 19 1011.0
20260508022508 23 0 0.0 0.0 0.00 0.00 0.00 19 1010.9
20260508022008 23 0 0.0 0.0 0.00 0.00 0.00 19 1010.9
20260508021803 23 0 0.0 0.0 0.00 0.00 0.00 19 1010.8
20260508021634 23 0 0.0 0.0 0.00 0.00 0.00 18 1010.8
20260508021508 23 0 0.0 0.0 0.00 0.00 0.00 18 1010.9
20260508021008 23 0 0.0 0.0 0.00 0.00 0.00 17 1010.9
20260508020903 23 0 0.0 0.0 0.00 0.00 0.00 17 1010.7
20260508020508 23 0 0.0 0.0 0.00 0.00 0.00 17 1010.8
20260508020008 23 0 0.0 0.0 0.00 0.00 0.00 17 1010.8
20260508020003 23 0 0.0 0.0 0.00 0.00 0.00 17 1010.8
20260508015634 23 0 0.0 0.0 0.00 0.00 0.00 16 1010.7
20260508015508 23 0 0.0 0.0 0.00 0.00 0.00 16 1010.8
20260508015403 23 0 0.0 0.0 0.00 0.00 0.00 16 1010.7
20260508015008 24 180 0.0 1.7 0.00 0.00 0.00 17 1010.7
20260508014508 24 180 0.0 1.7 0.00 0.00 0.00 16 1010.5
20260508014503 24 180 0.0 1.7 0.00 0.00 0.00 16 1010.5
20260508014008 23 180 0.0 1.7 0.00 0.00 0.00 16 1010.5
20260508013634 23 180 0.9 1.7 0.00 0.00 0.00 15 1010.5
20260508013603 23 180 0.9 1.7 0.00 0.00 0.00 15 1010.5
20260508013508 23 180 0.0 1.7 0.00 0.00 0.00 15 1010.4
20260508013008 23 180 0.0 1.7 0.00 0.00 0.00 14 1010.4
20260508012703 23 180 0.9 1.7 0.00 0.00 0.00 13 1010.4
20260508012508 23 90 0.0 1.7 0.00 0.00 0.00 13 1010.4
20260508012008 24 90 0.0 1.7 0.00 0.00 0.00 14 1010.5
20260508011803 24 90 0.0 1.7 0.00 0.00 0.00 14 1010.4
20260508011634 24 98 0.0 1.7 0.00 0.00 0.00 14 1010.3
20260508011508 24 103 0.0 1.7 0.00 0.00 0.00 14 1010.4
20260508011008 24 128 0.0 1.7 0.00 0.00 0.00 13 1010.3
20260508010903 24 129 0.0 1.7 0.00 0.00 0.00 13 1010.3
20260508010508 25 135 0.0 1.7 0.00 0.00 0.00 14 1010.3
20260508010008 25 141 0.0 1.7 0.00 0.00 0.00 14 1010.3
20260508010003 25 141 0.0 1.7 0.00 0.00 0.00 14 1010.3
20260508005634 25 161 0.9 1.7 0.00 0.00 0.00 13 1010.2
20260508005509 25 166 0.9 1.7 0.00 0.00 0.00 13 1010.2
20260508005403 25 171 0.9 1.7 0.00 0.00 0.00 13 1010.1
20260508005009 25 175 0.0 1.7 0.00 0.00 0.00 12 1010.2
20260508004509 24 159 1.7 1.7 0.00 0.00 0.00 10 1010.1
20260508004503 24 159 1.7 1.7 0.00 0.00 0.00 10 1010.1
20260508004009 24 135 0.0 1.7 0.00 0.00 0.00 10 1010.1
20260508003635 25 135 0.0 0.9 0.00 0.00 0.00 10 1010.0
20260508003603 25 135 0.0 0.9 0.00 0.00 0.00 10 1010.0
20260508003509 25 135 0.0 0.9 0.00 0.00 0.00 10 1009.9
20260508003009 25 135 0.0 1.7 0.00 0.00 0.00 10 1010.0
20260508002745 25 135 0.0 1.7 0.00 0.00 0.00 10 1009.9
20260508002703 25 135 0.0 1.7 0.00 0.00 0.00 10 1009.9
20260508002245 25 135 0.9 1.7 0.00 0.00 0.00 10 1009.9
20260508001803 25 135 0.0 1.7 0.00 0.00 0.00 10 1009.9
20260508001745 25 135 0.0 1.7 0.00 0.00 0.00 10 1009.8
20260508001635 25 135 0.0 1.7 0.00 0.00 0.00 10 1009.7
20260508001245 25 135 0.0 1.7 0.00 0.00 0.00 10 1009.7
20260508000903 25 135 0.9 1.7 0.00 0.00 0.00 10 1009.9
20260508000745 25 135 0.9 1.7 0.00 0.00 0.00 10 1009.8
20260508000245 25 135 0.9 1.7 0.00 0.00 0.00 10 1009.7
20260508000003 25 135 0.9 1.7 0.00 0.00 0.00 10 1009.8
20260507235745 25 135 0.0 0.9 0.00 0.00 0.00 10 1009.7
20260507235635 25 135 0.0 0.9 0.00 0.00 0.00 10 1009.7
20260507235403 25 135 0.0 1.7 0.00 0.00 0.00 10 1009.7
20260507235245 25 135 0.0 1.7 0.00 0.00 0.00 10 1009.8
20260507234745 26 135 0.0 1.7 0.00 0.00 0.00 10 1009.5
20260507234503 26 135 0.0 1.7 0.00 0.00 0.00 10 1009.5
20260507234245 26 135 0.0 1.7 0.00 0.00 0.00 10 1009.5
20260507233745 26 135 0.9 1.7 0.00 0.00 0.00 10 1009.4
20260507233635 26 135 0.9 1.7 0.00 0.00 0.00 10 1009.5
20260507233603 26 135 0.9 1.7 0.00 0.00 0.00 10 1009.5
20260507233245 26 0 0.0 0.0 0.00 0.00 0.00 10 1009.4
20260507232745 26 0 0.0 0.0 0.00 0.00 0.00 10 1009.3
20260507232703 26 0 0.0 0.0 0.00 0.00 0.00 10 1009.3
20260507232245 26 0 0.0 0.0 0.00 0.00 0.00 10 1009.3
20260507231803 26 135 0.0 0.9 0.00 0.00 0.00 10 1009.3
20260507231746 26 135 0.0 1.7 0.00 0.00 0.00 10 1009.2
20260507231634 26 135 0.0 1.7 0.00 0.00 0.00 10 1009.3
20260507231245 26 135 0.0 1.7 0.00 0.00 0.00 10 1009.2
20260507230903 27 135 0.0 1.7 0.00 0.00 0.00 10 1009.2
20260507230745 27 135 0.9 1.7 0.00 0.00 0.00 10 1009.1
20260507230245 27 135 0.9 1.7 0.00 0.00 0.00 10 1009.3
20260507230003 27 135 0.9 1.7 0.00 0.00 0.00 10 1009.1
20260507225745 27 135 0.0 1.7 0.00 0.00 0.00 10 1009.2
20260507225635 27 135 0.9 1.7 0.00 0.00 0.00 10 1009.2
20260507225403 27 135 0.9 1.7 0.00 0.00 0.00 10 1009.2
20260507225245 27 135 0.0 1.7 0.00 0.00 0.00 10 1009.1
20260507224745 27 135 0.0 1.7 0.00 0.00 0.00 10 1009.1
20260507224504 27 135 0.0 1.7 0.00 0.00 0.00 10 1009.2
20260507224245 27 135 0.0 1.7 0.00 0.00 0.00 10 1009.1
20260507223745 27 135 0.0 1.7 0.00 0.00 0.00 10 1009.0
20260507223635 27 135 0.0 1.7 0.00 0.00 0.00 10 1009.0
20260507223603 27 135 0.0 1.7 0.00 0.00 0.00 10 1009.0
20260507223245 27 135 0.9 1.7 0.00 0.00 0.00 10 1009.0
20260507222745 27 135 0.0 1.7 0.00 0.00 0.00 10 1009.0
20260507222703 27 135 0.0 1.7 0.00 0.00 0.00 10 1009.0
20260507222245 28 135 0.0 1.7 0.00 0.00 0.00 10 1008.9
20260507221803 28 135 0.9 1.7 0.00 0.00 0.00 10 1008.9
20260507221745 28 135 1.7 1.7 0.00 0.00 0.00 10 1009.0
20260507221635 28 135 0.9 1.7 0.00 0.00 0.00 10 1008.9
20260507221245 28 135 0.0 1.7 0.00 0.00 0.00 10 1008.9
20260507220903 28 135 0.0 1.7 0.00 0.00 0.00 10 1008.9
20260507220745 28 135 0.0 1.7 0.00 0.00 0.00 10 1009.0
20260507220245 28 135 0.0 1.7 0.00 0.00 0.00 10 1008.8
20260507220003 28 138 0.0 1.7 0.00 0.00 0.00 10 1008.9
20260507215745 28 152 0.9 1.7 0.00 0.00 0.00 10 1008.9
20260507215635 28 154 0.9 1.7 0.00 0.00 0.00 10 1008.9
20260507215403 28 160 0.9 1.7 0.00 0.00 0.00 10 1008.9
20260507215245 28 172 0.9 1.7 0.00 0.00 0.00 10 1008.8
20260507214745 28 174 0.9 1.7 0.00 0.00 0.00 10 1008.9
20260507214503 28 163 0.0 1.7 0.00 0.00 0.00 10 1008.8
20260507214245 28 149 0.0 1.7 0.00 0.00 0.00 10 1008.7
20260507213746 28 135 0.0 1.7 0.00 0.00 0.00 10 1008.8
20260507213634 28 135 0.9 1.7 0.00 0.00 0.00 10 1008.7
20260507213603 28 135 0.9 1.7 0.00 0.00 0.00 10 1008.7
20260507213246 28 135 0.9 1.7 0.00 0.00 0.00 10 1008.8
20260507212746 28 157 0.0 1.7 0.00 0.00 0.00 10 1008.6
20260507212703 28 157 0.0 1.7 0.00 0.00 0.00 10 1008.6
20260507212246 28 176 0.0 1.7 0.00 0.00 0.00 10 1008.6
20260507211803 28 180 0.0 1.7 0.00 0.00 0.00 10 1008.5
20260507211746 28 171 0.0 1.7 0.00 0.00 0.00 10 1008.6
20260507211254 28 150 0.0 1.7 0.00 0.00 0.00 10 1008.6
20260507210903 29 142 1.7 1.7 0.00 0.00 0.00 10 1008.4
20260507210754 29 135 0.0 1.7 0.00 0.00 0.00 10 1008.4
20260507210254 29 135 0.0 1.7 0.00 0.00 0.00 10 1008.3
20260507210003 29 135 0.0 1.7 0.00 0.00 0.00 10 1008.4
20260507205754 29 135 0.0 1.7 0.00 0.00 0.00 10 1008.3
20260507205634 29 135 0.0 1.7 0.00 0.00 0.00 10 1008.3
20260507205403 29 135 0.0 1.7 0.00 0.00 0.00 10 1008.2
20260507205254 29 135 0.9 1.7 0.00 0.00 0.00 10 1008.3
20260507204754 29 135 0.9 1.7 0.00 0.00 0.00 10 1008.2
20260507204503 29 135 0.0 1.7 0.00 0.00 0.00 10 1008.1
20260507204254 29 135 0.0 1.7 0.00 0.00 0.00 10 1008.1
20260507203754 30 135 0.9 1.7 0.00 0.00 0.00 10 1008.3
20260507203634 30 135 0.0 0.9 0.00 0.00 0.00 10 1008.0
20260507203603 30 135 0.0 0.9 0.00 0.00 0.00 10 1008.0
20260507203254 30 135 0.0 1.7 0.00 0.00 0.00 10 1008.1
20260507202754 30 135 0.0 1.7 0.00 0.00 0.00 10 1008.1
20260507202703 30 135 0.0 1.7 0.00 0.00 0.00 10 1008.1
20260507202254 31 136 0.9 1.7 0.00 0.00 0.00 10 1008.1
20260507201803 31 141 0.0 1.7 0.00 0.00 0.00 10 1008.1
20260507201754 31 142 0.9 1.7 0.00 0.00 0.00 10 1008.0
20260507201634 31 143 0.9 1.7 0.00 0.00 0.00 10 1007.9
20260507201254 32 157 0.0 1.7 0.00 0.00 0.00 10 1008.1
20260507200903 32 157 0.0 0.9 0.00 0.00 0.00 10 1007.9
20260507200754 32 157 0.0 0.9 0.00 0.00 0.00 10 1007.9
20260507200255 33 135 0.0 1.7 0.00 0.00 0.00 10 1007.8
20260507200003 33 135 0.0 1.7 0.00 0.00 0.00 10 1007.8
20260507195754 33 135 0.0 1.7 0.00 0.00 0.00 10 1007.7
20260507195634 33 135 0.0 1.7 0.00 0.00 0.00 10 1007.7
20260507195403 34 135 0.0 1.7 0.00 0.00 0.00 10 1007.7
20260507195254 34 135 0.9 1.7 0.00 0.00 0.00 10 1007.5
20260507194754 35 135 0.9 1.7 0.00 0.00 0.00 10 1007.5
20260507194503 35 135 0.0 1.7 0.00 0.00 0.00 10 1007.5
20260507194254 35 135 0.0 1.7 0.00 0.00 0.00 10 1007.5
20260507193748 36 135 0.0 1.7 0.00 0.00 0.00 10 1007.4
20260507193636 36 135 0.0 1.7 0.00 0.00 0.00 10 1007.4
20260507193603 36 135 0.0 1.7 0.00 0.00 0.00 10 1007.4
20260507193248 36 135 0.0 1.7 0.00 0.00 0.00 10 1007.3
20260507192748 37 138 0.0 1.7 0.00 0.00 0.00 10 1007.1
20260507192703 37 138 0.0 1.7 0.00 0.00 0.00 10 1007.1
20260507192248 38 141 0.9 1.7 0.00 0.00 0.00 10 1007.2
20260507191803 39 0 0.0 0.0 0.00 0.00 0.00 10 1007.1
20260507191748 39 225 0.0 1.7 0.00 0.00 0.00 10 1007.2
20260507191636 39 225 0.0 1.7 0.00 0.00 0.00 10 1007.2
20260507191248 40 225 0.0 1.7 0.00 0.00 0.00 10 1007.0
20260507190903 40 225 0.0 2.6 0.00 0.00 0.00 10 1006.9
20260507190748 41 230 0.9 2.6 0.00 0.00 0.00 10 1006.9
20260507190248 41 242 0.9 2.6 0.00 0.00 0.00 10 1007.0
20260507190004 41 242 0.9 2.6 0.00 0.00 0.00 10 1006.9
20260507185748 42 235 0.9 1.7 0.00 0.00 0.00 10 1007.0
20260507185636 42 236 0.9 1.7 0.00 0.00 0.00 10 1006.9
20260507185403 42 234 0.9 1.7 0.00 0.00 0.00 10 1006.9
20260507185248 43 241 0.9 1.7 0.00 0.00 0.00 10 1006.9
20260507184748 44 265 0.0 2.6 0.00 0.00 0.00 10 1006.7
20260507184503 44 263 0.0 3.5 0.00 0.00 0.00 10 1006.7
20260507184248 44 266 0.0 3.5 0.00 0.00 0.00 10 1006.8
20260507183748 43 297 0.9 3.5 0.00 0.00 0.00 10 1006.8
20260507183636 43 306 1.7 3.5 0.00 0.00 0.00 10 1006.7
20260507183603 43 306 1.7 3.5 0.00 0.00 0.00 10 1006.7
20260507183248 43 310 0.9 4.3 0.00 0.00 0.00 10 1006.6
20260507182749 44 282 1.7 4.3 0.00 0.00 0.00 10 1006.7
20260507182703 44 280 1.7 4.3 0.00 0.00 0.00 10 1006.7
20260507182248 44 273 1.7 7.0 0.00 0.00 0.00 10 1006.6
20260507181803 45 277 1.7 7.0 0.00 0.00 0.00 10 1006.5
20260507181748 45 269 2.6 7.0 0.00 0.00 0.00 10 1006.5
20260507181636 45 262 1.7 7.0 0.00 0.00 0.00 10 1006.6
20260507181248 46 261 3.5 7.0 0.00 0.00 0.00 10 1006.6
20260507180903 46 263 2.6 7.0 0.00 0.00 0.00 10 1006.6
20260507180748 46 267 1.7 7.0 0.00 0.00 0.00 10 1006.6
20260507180248 46 270 4.3 7.0 0.00 0.00 0.00 10 1006.4
20260507180003 46 274 4.3 7.0 0.00 0.00 0.00 10 1006.4
20260507175748 46 281 3.5 7.0 0.00 0.00 0.00 10 1006.4
20260507175636 46 286 3.5 7.0 0.00 0.00 0.00 10 1006.4
20260507175403 46 298 2.6 7.0 0.00 0.00 0.00 10 1006.4
20260507175248 46 313 3.5 7.8 0.00 0.00 0.00 10 1006.3
20260507174748 46 309 1.7 8.7 0.00 0.00 0.00 10 1006.3
20260507174504 46 307 3.5 8.7 0.00 0.00 0.00 10 1006.2
20260507174248 46 306 2.6 8.7 0.00 0.00 0.00 10 1006.1
20260507173748 46 309 3.5 8.7 0.00 0.00 0.00 10 1006.3
20260507173636 46 317 2.6 8.7 0.00 0.00 0.00 10 1006.0
20260507173603 46 317 2.6 8.7 0.00 0.00 0.00 10 1006.0
20260507173248 46 307 3.5 8.7 0.00 0.00 0.00 10 1006.2
20260507172748 46 298 2.6 8.7 0.00 0.00 0.00 10 1006.2
20260507172704 46 297 2.6 8.7 0.00 0.00 0.00 10 1006.2
20260507172248 46 279 2.6 8.7 0.00 0.00 0.00 10 1006.1
20260507171803 47 279 2.6 8.7 0.00 0.00 0.00 10 1005.9
20260507171748 47 287 4.3 8.7 0.00 0.00 0.00 10 1005.9
20260507171636 47 287 6.1 8.7 0.00 0.00 0.00 10 1006.0
20260507171248 47 279 3.5 7.0 0.00 0.00 0.00 10 1005.9
20260507170903 47 285 2.6 7.8 0.00 0.00 0.00 10 1005.8
20260507170748 47 292 3.5 8.7 0.00 0.00 0.00 10 1005.9
20260507170248 47 331 3.5 9.6 0.00 0.00 0.00 10 1005.8
20260507170003 47 322 3.5 9.6 0.00 0.00 0.00 10 1005.7
20260507165748 47 324 3.5 9.6 0.00 0.00 0.00 10 1005.7
20260507165636 47 321 5.2 9.6 0.00 0.00 0.00 10 1005.7
20260507165403 47 313 5.2 9.6 0.00 0.00 0.00 10 1005.8
20260507165249 47 310 4.3 9.6 0.00 0.00 0.00 10 1005.7
20260507164749 47 310 6.1 9.6 0.00 0.00 0.00 10 1005.6
20260507164503 47 305 3.5 9.6 0.00 0.00 0.00 10 1005.7
20260507164249 47 299 4.3 9.6 0.00 0.00 0.00 10 1005.6
20260507163749 47 312 7.0 9.6 0.00 0.00 0.00 10 1005.5
20260507163635 47 318 6.1 9.6 0.00 0.00 0.00 10 1005.6
20260507163603 47 318 6.1 9.6 0.00 0.00 0.00 10 1005.6
20260507163249 47 336 3.5 9.6 0.00 0.00 0.00 10 1005.5
20260507162749 46 347 3.5 7.8 0.00 0.00 0.00 10 1005.4
20260507162703 46 345 3.5 7.8 0.00 0.00 0.00 10 1005.4
20260507162249 44 334 1.7 7.8 0.00 0.00 0.00 10 1005.4
20260507161803 43 305 3.5 6.1 0.00 0.00 0.00 10 1005.4
20260507161749 43 295 1.7 6.1 0.00 0.00 0.00 10 1005.4
20260507161635 43 292 3.5 6.1 0.00 0.00 0.00 10 1005.3
20260507161249 43 273 2.6 6.1 0.00 0.00 0.00 10 1005.3
20260507160903 43 274 3.5 5.2 0.00 0.00 0.00 10 1005.4
20260507160749 43 285 3.5 7.0 0.00 0.00 0.00 10 1005.3
20260507160249 43 328 3.5 7.0 0.00 0.00 0.00 10 1005.2
20260507160003 43 347 3.5 7.0 0.00 0.00 0.00 10 1005.2
20260507155748 44 341 3.5 7.8 0.00 0.00 0.00 10 1005.1
20260507155635 44 342 2.6 7.8 0.00 0.00 0.00 10 1005.2
20260507155403 44 338 1.7 9.6 0.00 0.00 0.00 10 1005.2
20260507155249 44 333 3.5 9.6 0.00 0.00 0.00 10 1005.1
20260507154749 46 315 3.5 9.6 0.00 0.00 0.00 10 1005.1
20260507154503 47 322 5.2 8.7 0.00 0.00 0.00 10 1005.0
20260507154249 46 315 5.2 7.0 0.00 0.00 0.00 10 1005.0
20260507153748 45 328 3.5 7.0 0.00 0.00 0.00 10 1005.1
20260507153635 44 324 3.5 7.0 0.00 0.00 0.00 10 1005.1
20260507153603 44 324 3.5 7.0 0.00 0.00 0.00 10 1005.1
20260507153248 44 304 0.9 7.0 0.00 0.00 0.00 10 1005.0
20260507152748 44 297 3.5 7.0 0.00 0.00 0.00 10 1004.9
20260507152703 44 297 3.5 7.0 0.00 0.00 0.00 10 1004.9
20260507152248 44 321 3.5 8.7 0.00 0.00 0.00 10 1004.9
20260507151803 45 339 2.6 8.7 0.00 0.00 0.00 10 1005.0
20260507151747 45 341 3.5 8.7 0.00 0.00 0.00 10 1004.9
20260507151635 45 338 1.7 8.7 0.00 0.00 0.00 10 1004.8
20260507151247 46 304 4.3 7.8 0.00 0.00 0.00 10 1004.9
20260507150903 46 280 2.6 7.0 0.00 0.00 0.00 10 1004.9
20260507150747 45 269 2.6 5.2 0.00 0.00 0.00 10 1004.9
20260507150247 45 260 2.6 5.2 0.00 0.00 0.00 10 1004.9
20260507150003 45 261 2.6 5.2 0.00 0.00 0.00 10 1004.7
20260507145747 45 280 1.7 7.0 0.00 0.00 0.00 10 1004.7
20260507145635 45 285 1.7 7.0 0.00 0.00 0.00 10 1004.8
20260507145403 45 302 0.9 7.0 0.00 0.00 0.00 10 1004.6
20260507145248 45 316 1.7 7.0 0.00 0.00 0.00 10 1004.7
20260507144747 44 329 1.7 7.0 0.00 0.00 0.00 10 1004.7
20260507144503 44 328 2.6 7.0 0.00 0.00 0.00 10 1004.8
20260507144247 44 337 1.7 7.8 0.00 0.00 0.00 10 1004.6
20260507143747 44 342 3.5 8.7 0.00 0.00 0.00 10 1004.6
20260507143635 45 339 3.5 8.7 0.00 0.00 0.00 10 1004.5
20260507143603 45 339 3.5 8.7 0.00 0.00 0.00 10 1004.5
20260507143247 45 339 5.2 9.6 0.00 0.00 0.00 10 1004.5
20260507142748 44 333 3.5 9.6 0.00 0.00 0.00 10 1004.7
20260507142703 44 334 3.5 9.6 0.00 0.00 0.00 10 1004.7
20260507142247 45 334 3.5 10.4 0.00 0.00 0.00 10 1004.7
20260507141803 45 332 3.5 10.4 0.00 0.00 0.00 10 1004.7
20260507141747 45 327 3.5 10.4 0.00 0.00 0.00 10 1004.5
20260507141636 45 328 7.0 10.4 0.00 0.00 0.00 10 1004.5
20260507141247 46 336 3.5 9.6 0.00 0.00 0.00 10 1004.7
20260507140903 45 346 3.5 10.4 0.00 0.00 0.00 10 1004.4
20260507140747 44 350 4.3 10.4 0.00 0.00 0.00 10 1004.6
20260507140247 44 355 3.5 10.4 0.00 0.00 0.00 10 1004.5
20260507140003 44 352 3.5 10.4 0.00 0.00 0.00 10 1004.4
20260507135747 45 348 7.0 10.4 0.00 0.00 0.00 10 1004.4
20260507135635 45 347 6.1 10.4 0.00 0.00 0.00 10 1004.4
20260507135403 45 342 4.3 10.4 0.00 0.00 0.00 10 1004.3
20260507135247 45 338 5.2 10.4 0.00 0.00 0.00 10 1004.4
20260507134747 45 355 6.1 10.4 0.00 0.00 0.00 10 1004.3
20260507134503 45 355 6.1 11.3 0.00 0.00 0.00 10 1004.3
20260507134248 44 3 3.5 11.3 0.00 0.00 0.00 10 1004.3
20260507133748 44 342 7.8 11.3 0.00 0.00 0.00 10 1004.2
20260507133634 44 342 7.8 11.3 0.00 0.00 0.00 10 1004.2
20260507133603 44 342 7.8 11.3 0.00 0.00 0.00 10 1004.2
20260507133248 45 330 4.3 11.3 0.00 0.00 0.00 10 1004.2
20260507132748 44 340 5.2 10.4 0.00 0.00 0.00 10 1004.2
20260507132703 44 341 5.2 10.4 0.00 0.00 0.00 10 1004.2
20260507132248 44 334 5.2 9.6 0.00 0.00 0.00 10 1004.0
20260507131803 43 325 3.5 9.6 0.00 0.00 0.00 10 1004.1
20260507131748 43 322 3.5 9.6 0.00 0.00 0.00 10 1004.1
20260507131448 43 316 6.1 9.6 0.00 0.00 0.00 10 1004.1
20260507130948 43 336 3.5 9.6 0.00 0.00 0.00 10 1004.1
20260507130903 43 336 3.5 9.6 0.00 0.00 0.00 10 1004.1
20260507130448 43 342 6.1 9.6 0.00 0.00 0.00 10 1004.1
20260507130003 43 342 3.5 9.6 0.00 0.00 0.00 10 1004.0
20260507125948 43 339 4.3 9.6 0.00 0.00 0.00 10 1004.1
20260507125634 43 334 3.5 10.4 0.00 0.00 0.00 10 1004.1
20260507125448 43 329 3.5 10.4 0.00 0.00 0.00 10 1004.0
20260507125403 43 329 3.5 10.4 0.00 0.00 0.00 10 1004.0
20260507124948 43 320 3.5 10.4 0.00 0.00 0.00 10 1003.9
20260507124503 44 323 4.3 8.7 0.00 0.00 0.00 10 1004.1
20260507124448 44 324 6.1 8.7 0.00 0.00 0.00 10 1004.0
20260507123948 44 325 5.2 8.7 0.00 0.00 0.00 10 1003.9
20260507123634 44 330 3.5 7.8 0.00 0.00 0.00 10 1003.9
20260507123603 44 330 3.5 7.8 0.00 0.00 0.00 10 1003.9
20260507123448 44 338 3.5 11.3 0.00 0.00 0.00 10 1003.9
20260507122948 44 341 5.2 11.3 0.00 0.00 0.00 10 1003.9
20260507122705 44 346 3.5 11.3 0.00 0.00 0.00 10 1003.9
20260507122448 45 349 4.3 11.3 0.00 0.00 0.00 10 1003.8
20260507121948 44 340 5.2 9.6 0.00 0.00 0.00 10 1003.9
20260507121803 44 333 7.0 9.6 0.00 0.00 0.00 10 1003.8
20260507121634 44 327 5.2 9.6 0.00 0.00 0.00 10 1003.9
20260507121448 44 323 3.5 9.6 0.00 0.00 0.00 10 1003.9
20260507120949 44 336 1.7 8.7 0.00 0.00 0.00 10 1003.8
20260507120903 44 336 1.7 8.7 0.00 0.00 0.00 10 1003.8
20260507120449 44 345 3.5 9.6 0.00 0.00 0.00 10 1003.8
20260507120004 43 5 3.5 13.0 0.00 0.00 0.00 10 1003.8
20260507115949 43 5 5.2 13.0 0.00 0.00 0.00 10 1003.8
20260507115635 44 360 5.2 13.0 0.00 0.00 0.00 10 1003.8
20260507115449 44 356 4.3 13.0 0.00 0.00 0.00 10 1003.8
20260507115403 44 356 4.3 13.0 0.00 0.00 0.00 10 1003.8
20260507114949 43 344 7.0 12.2 0.00 0.00 0.00 10 1003.7
20260507114503 44 359 7.0 9.6 0.00 0.00 0.00 10 1003.7
20260507114449 44 358 4.3 9.6 0.00 0.00 0.00 10 1003.7
20260507113949 44 360 7.0 9.6 0.00 0.00 0.00 10 1003.6
20260507113635 44 340 6.1 9.6 0.00 0.00 0.00 10 1003.6
20260507113603 44 340 6.1 9.6 0.00 0.00 0.00 10 1003.6
20260507113449 44 342 3.5 10.4 0.00 0.00 0.00 10 1003.6
20260507112949 44 332 5.2 10.4 0.00 0.00 0.00 10 1003.6
20260507112703 44 343 4.3 10.4 0.00 0.00 0.00 10 1003.5
20260507112449 44 348 4.3 9.6 0.00 0.00 0.00 10 1003.5
20260507111949 44 360 3.5 9.6 0.00 0.00 0.00 10 1003.4
20260507111803 44 7 6.1 9.6 0.00 0.00 0.00 10 1003.4
20260507111635 44 2 5.2 8.7 0.00 0.00 0.00 10 1003.4
20260507111449 44 349 4.3 9.6 0.00 0.00 0.00 10 1003.5
20260507110949 44 349 3.5 9.6 0.00 0.00 0.00 10 1003.5
20260507110904 44 349 3.5 9.6 0.00 0.00 0.00 10 1003.5
20260507110449 43 340 3.5 8.7 0.00 0.00 0.00 10 1003.4
20260507110003 43 342 4.3 9.6 0.00 0.00 0.00 10 1003.4
20260507105949 43 333 6.1 9.6 0.00 0.00 0.00 10 1003.3
20260507105635 43 335 6.1 10.4 0.00 0.00 0.00 10 1003.4
20260507105449 43 349 3.5 11.3 0.00 0.00 0.00 10 1003.4
20260507105403 43 349 3.5 11.3 0.00 0.00 0.00 10 1003.4
20260507104949 43 351 4.3 11.3 0.00 0.00 0.00 10 1003.3
20260507104504 43 353 7.0 10.4 0.00 0.00 0.00 10 1003.3
20260507104449 43 346 4.3 10.4 0.00 0.00 0.00 10 1003.3
20260507103948 43 338 3.5 9.6 0.00 0.00 0.00 10 1003.2
20260507103634 43 334 5.2 9.6 0.00 0.00 0.00 10 1003.2
20260507103603 43 335 5.2 9.6 0.00 0.00 0.00 10 1003.2
20260507103449 43 335 5.2 9.6 0.00 0.00 0.00 10 1003.3
20260507102949 42 333 3.5 7.8 0.00 0.00 0.00 10 1003.2
20260507102703 43 330 3.5 7.8 0.00 0.00 0.00 10 1003.1
20260507102449 43 344 3.5 9.6 0.00 0.00 0.00 10 1003.1
20260507101949 43 351 2.6 9.6 0.00 0.00 0.00 10 1003.0
20260507101803 43 353 3.5 9.6 0.00 0.00 0.00 10 1002.9
20260507101635 43 348 3.5 9.6 0.00 0.00 0.00 10 1003.0
20260507101449 43 337 2.6 9.6 0.00 0.00 0.00 10 1002.9
20260507100949 43 343 6.1 9.6 0.00 0.00 0.00 10 1002.9
20260507100903 43 343 6.1 9.6 0.00 0.00 0.00 10 1002.9